(301465) = 2008 EC93 = 2009 DC122

Discovered at Kitt Peak on 2009-02-27 by Spacewatch.

Orbit

Orbit type: Main Belt

Note: WebGL enabled browser required.

epoch2023-09-13.0
epoch JD2460200.5
perihelion date2020-01-26.28534
perihelion JD2458874.78534
argument of perihelion (°)28.13417
ascending node (°)4.55856
inclination (°)11.65912
eccentricity0.1724049
perihelion distance (AU)2.1299763
Tisserand w.r.t. Jupiter3.4
ΔV w.r.t. Earth (km/sec)9.8
semimajor axis (AU)2.5736936
mean anomaly (°)316.45987
mean daily motion (°/day)0.23870890
aphelion distance (AU)3.017
period (years)4.13
P-vector [x]0.84235256
P-vector [y]0.44875965
P-vector [z]0.29842409
Q-vector [x]-0.53868747
Q-vector [y]0.68460500
Q-vector [z]0.49105174
absolute magnitude16.79
phase slope0.15
uncertainty0
referenceMPEC 2024-A48
observations used389
oppositions13
arc length (days)6861
first opposition used2005
last opposition used2023
residual rms (arc-secs)0.68
perturbers coarse indicatorM-v
perturbers precise indicator003Ek
first observation date used2005-03-17.0
last observation date used2023-12-29.0
computer nameMPCLINUX
JD of orbit computation2456847.647505
perihelion JD uncertainty (days)1.0170E-04
argument of perihelion uncertainty (°)3.7651E-05
ascending node uncertainty (°)3.1935E-05
inclination uncertainty (°)1.0576E-05
eccentricity uncertainty 1.4805E-07
perihelion distance uncertainty (AU)4.0795E-07
Minimum Orbit Intersection Distances (in AU)
for orbit epoch: 2460200.5, reference: E2024-A48
Mercury1.80262
Venus1.4151
Earth1.14075
Mars0.71449
Jupiter2.46541
Saturn6.57202
Uranus15.536
Neptune27.7018

Observations

396 total observations over interval: 2005 03 17.32717 – 2023 12 29.229417
These data are available for download (format description).

Date (UT) J2000 RA J2000 Dec Magn Location Ref
2005 03 17.32717 12 44 20.05 -05 33 56.1 21.4 V 691 – Steward Observatory, Kitt Peak-Spacewatch MPS 285737
2005 03 17.35291 12 44 18.62 -05 33 52.5 21.1 V 691 – Steward Observatory, Kitt Peak-Spacewatch MPS 285737
2005 03 17.37817 12 44 17.20 -05 33 49.5 21.3 V 691 – Steward Observatory, Kitt Peak-Spacewatch MPS 285737
2007 11 08.33391 03 46 13.90 +36 27 51.5 18.2 V 703 – Catalina Sky Survey MPS 285737
2007 11 08.34077 03 46 13.36 +36 27 52.3 19.0 V 703 – Catalina Sky Survey MPS 285737
2007 11 08.34745 03 46 12.97 +36 27 53.1 18.9 V 703 – Catalina Sky Survey MPS 285737
2007 11 08.35411 03 46 12.50 +36 27 54.7 19.0 V 703 – Catalina Sky Survey MPS 285737
2007 12 03.31394 03 16 56.26 +36 37 38.9   704 – Lincoln Laboratory ETS, New Mexico MPS 407618
2007 12 03.32678 03 16 55.46 +36 37 37.0   704 – Lincoln Laboratory ETS, New Mexico MPS 407618
2007 12 03.33963 03 16 54.60 +36 37 34.2   704 – Lincoln Laboratory ETS, New Mexico MPS 407618
2007 12 03.35260 03 16 53.84 +36 37 32.8   704 – Lincoln Laboratory ETS, New Mexico MPS 407618
2007 12 03.36548 03 16 53.01 +36 37 29.7   704 – Lincoln Laboratory ETS, New Mexico MPS 407618
2007 12 19.18155 03 05 06.50 +35 39 03.0 19.6 V G96 – Mt. Lemmon Survey MPS 285737
2007 12 19.18548 03 05 06.39 +35 39 01.6 19.6 V G96 – Mt. Lemmon Survey MPS 285737
2007 12 19.18944 03 05 06.25 +35 39 00.7 19.7 V G96 – Mt. Lemmon Survey MPS 285737
2007 12 19.19348 03 05 06.14 +35 38 59.8 19.4 V G96 – Mt. Lemmon Survey MPS 285737
2008 03 01.19963 04 02 47.07 +33 19 01.5 20.8 V G96 – Mt. Lemmon Survey MPS 244152
2008 03 01.20625 04 02 47.72 +33 19 01.9 21.0 V G96 – Mt. Lemmon Survey MPS 244152
2008 03 01.21290 04 02 48.37 +33 19 01.5 21.0 V G96 – Mt. Lemmon Survey MPS 244152
2008 03 01.21957 04 02 49.02 +33 19 01.9 21.2 V G96 – Mt. Lemmon Survey MPS 244152
2008 03 05.10679 04 09 18.90 +33 20 06.0 21.4 V G96 – Mt. Lemmon Survey MPS 244152
2008 03 05.10807 04 09 19.04 +33 20 05.8 21.0 V G96 – Mt. Lemmon Survey MPS 244152
2008 03 05.10936 04 09 19.11 +33 20 05.9 21.0 V G96 – Mt. Lemmon Survey MPS 244152
2008 03 05.11071 04 09 19.26 +33 20 06.0 20.8 V G96 – Mt. Lemmon Survey MPS 244152
2009 02 19.35569 12 24 12.27 +00 48 04.4 21.0 V 691 – Steward Observatory, Kitt Peak-Spacewatch MPS 284506
2009 02 19.37124 12 24 11.67 +00 48 06.0 21.5 V 691 – Steward Observatory, Kitt Peak-Spacewatch MPS 284506
2009 02 19.38679 12 24 11.03 +00 48 07.0 21.4 V 691 – Steward Observatory, Kitt Peak-Spacewatch MPS 284506
2009 02 27.35266 12 18 30.79 +01 02 11.1 21.2 V 691 – Steward Observatory, Kitt Peak-Spacewatch MPS 281410
2009 02 27.37119 12 18 29.84 +01 02 13.5 21.1 V 691 – Steward Observatory, Kitt Peak-Spacewatch MPS 281410
2009 02 27.38725 12 18 29.09 +01 02 15.4 21.1 V 691 – Steward Observatory, Kitt Peak-Spacewatch MPS 281410
2009 03 03.32629 12 15 14.53 +01 11 05.3 21.3 V 691 – Steward Observatory, Kitt Peak-Spacewatch MPS 281410
2009 03 03.34416 12 15 13.56 +01 11 07.4 20.6 V 691 – Steward Observatory, Kitt Peak-Spacewatch MPS 281410
2009 03 03.36181 12 15 12.65 +01 11 09.9 20.8 V 691 – Steward Observatory, Kitt Peak-Spacewatch MPS 281410
2009 03 17.21046 12 02 19.57 +01 47 32.5 21.0 V 691 – Steward Observatory, Kitt Peak-Spacewatch MPS 285737
2009 03 17.23155 12 02 18.30 +01 47 35.9 20.6 V 691 – Steward Observatory, Kitt Peak-Spacewatch MPS 285737
2009 03 17.24917 12 02 17.23 +01 47 39.1 20.6 V 691 – Steward Observatory, Kitt Peak-Spacewatch MPS 285737
2009 04 26.20822 11 30 43.30 +02 49 23.1 21.7 V G96 – Mt. Lemmon Survey MPS 285737
2009 04 26.21370 11 30 43.12 +02 49 22.3 21.7 V G96 – Mt. Lemmon Survey MPS 285737
2009 04 26.22418 11 30 42.84 +02 49 22.4 22.4 V G96 – Mt. Lemmon Survey MPS 285737
2009 04 26.22965 11 30 42.69 +02 49 22.2 22.1 V G96 – Mt. Lemmon Survey MPS 285737
2011 07 09.57968 01 36 44.936 +08 32 46.35 21.4 w F51 – Pan-STARRS 1, Haleakala MPS 387260
2011 07 09.58892 01 36 45.661 +08 32 52.69 21.6 w F51 – Pan-STARRS 1, Haleakala MPS 387260
2011 07 09.59353 01 36 46.030 +08 32 55.99 21.4 w F51 – Pan-STARRS 1, Haleakala MPS 387260
2011 09 28.43098 02 24 41.18 +21 43 19.4 18.9 V 703 – Catalina Sky Survey MPS 392757
2011 09 28.43603 02 24 41.00 +21 43 22.4 19.1 V 703 – Catalina Sky Survey MPS 392757
2011 09 28.44117 02 24 40.78 +21 43 24.9 19.0 V 703 – Catalina Sky Survey MPS 392757
2011 09 28.44626 02 24 40.68 +21 43 27.4 18.9 V 703 – Catalina Sky Survey MPS 392757
2011 10 27.06957 01 57 48.13 +23 42 41.2 18.8 R 104 – San Marcello Pistoiese MPS 398118
2011 10 27.07232 01 57 47.93 +23 42 41.5 18.8 R 104 – San Marcello Pistoiese MPS 398118
2011 10 28.28029 01 56 25.40 +23 44 14.4 18.8 V 703 – Catalina Sky Survey MPS 398118
2011 10 28.29065 01 56 24.64 +23 44 15.7 18.9 V 703 – Catalina Sky Survey MPS 398118
2011 10 28.30093 01 56 23.89 +23 44 15.9 19.0 V 703 – Catalina Sky Survey MPS 398118
2011 10 28.31126 01 56 23.17 +23 44 17.5 19.0 V 703 – Catalina Sky Survey MPS 398118
2011 11 02.26178 01 50 49.30 +23 47 47.4 19.4   704 – Lincoln Laboratory ETS, New Mexico MPS 399929
2011 11 02.27401 01 50 48.45 +23 47 47.7 19.8   704 – Lincoln Laboratory ETS, New Mexico MPS 399929
2011 11 02.28623 01 50 47.59 +23 47 47.4 19.6   704 – Lincoln Laboratory ETS, New Mexico MPS 399929
2011 11 02.29852 01 50 46.67 +23 47 48.7 19.6   704 – Lincoln Laboratory ETS, New Mexico MPS 399929
2011 11 02.31074 01 50 45.96 +23 47 48.6 19.8   704 – Lincoln Laboratory ETS, New Mexico MPS 399929
2011 11 17.32797 01 36 29.37 +23 39 04.8 20.3   704 – Lincoln Laboratory ETS, New Mexico MPS 401019
2011 11 17.34054 01 36 28.75 +23 39 04.9 20.0   704 – Lincoln Laboratory ETS, New Mexico MPS 401019
2011 11 17.35443 01 36 28.12 +23 39 03.0 19.9   704 – Lincoln Laboratory ETS, New Mexico MPS 401019
2011 11 17.36698 01 36 27.50 +23 39 02.0 20.0   704 – Lincoln Laboratory ETS, New Mexico MPS 401019
2011 11 27.25554 01 30 41.22 +23 27 11.9 19.4 V 703 – Catalina Sky Survey MPS 404203
2011 11 27.26182 01 30 41.00 +23 27 12.4 19.5 V 703 – Catalina Sky Survey MPS 404203
2011 11 27.26809 01 30 40.86 +23 27 10.0 19.6 V 703 – Catalina Sky Survey MPS 404203
2011 11 27.27449 01 30 40.64 +23 27 08.8 19.6 V 703 – Catalina Sky Survey MPS 404203
2013 02 07.42473 11 51 15.52 +07 50 08.2 20.9 V 691 – Steward Observatory, Kitt Peak-Spacewatch MPS 456165
2013 02 07.43983 11 51 14.94 +07 50 10.4 20.6 V 691 – Steward Observatory, Kitt Peak-Spacewatch MPS 456165
2013 02 07.45494 11 51 14.33 +07 50 11.5 20.4 V 691 – Steward Observatory, Kitt Peak-Spacewatch MPS 456165
2013 03 07.42211 11 27 33.84 +09 05 58.4 20.0 V G96 – Mt. Lemmon Survey MPS 459142
2013 03 07.42953 11 27 33.40 +09 05 59.7 20.3 V G96 – Mt. Lemmon Survey MPS 459142
2013 03 07.43707 11 27 32.94 +09 06 00.8 19.9 V G96 – Mt. Lemmon Survey MPS 459142
2013 03 07.44459 11 27 32.47 +09 06 02.0 20.2 V G96 – Mt. Lemmon Survey MPS 459142
2013 03 14.35112 11 20 36.88 +09 23 32.6 20.2 V G96 – Mt. Lemmon Survey MPS 460453
2013 03 14.35704 11 20 36.49 +09 23 33.5 20.2 V G96 – Mt. Lemmon Survey MPS 460453
2013 03 14.36293 11 20 36.16 +09 23 34.6 20.5 V G96 – Mt. Lemmon Survey MPS 460453
2013 03 14.36880 11 20 35.77 +09 23 35.2 20.5 V G96 – Mt. Lemmon Survey MPS 460453
2013 04 06.23619 11 00 59.68 +09 48 51.7 21.1 V G96 – Mt. Lemmon Survey MPS 463924
2013 04 06.24149 11 00 59.47 +09 48 51.8 20.9 V G96 – Mt. Lemmon Survey MPS 463924
2013 04 06.24681 11 00 59.25 +09 48 51.9 20.6 V G96 – Mt. Lemmon Survey MPS 463924
2014 06 29.31665 15 33 52.330 -35 09 57.43 21.1 w F51 – Pan-STARRS 1, Haleakala MPS 522108
2014 06 29.32682 15 33 51.970 -35 09 54.82 21.0 w F51 – Pan-STARRS 1, Haleakala MPS 522108
2014 06 29.33699 15 33 51.616 -35 09 52.38 20.9 w F51 – Pan-STARRS 1, Haleakala MPS 522108
2014 06 29.34715 15 33 51.260 -35 09 49.77 21.2 w F51 – Pan-STARRS 1, Haleakala MPS 522108
2015 06 26.58436 00 31 47.601 -02 36 15.12 21.1 w F51 – Pan-STARRS 1, Haleakala MPS 614548
2015 06 26.58824 00 31 47.873 -02 36 13.00 21.1 w F51 – Pan-STARRS 1, Haleakala MPS 614548
2015 06 26.59210 00 31 48.125 -02 36 10.70 21.1 w F51 – Pan-STARRS 1, Haleakala MPS 614548
2015 06 26.59597 00 31 48.389 -02 36 08.53 21.2 w F51 – Pan-STARRS 1, Haleakala MPS 614548
2015 07 23.56133 00 57 28.364 +01 16 25.71 20.7 w F51 – Pan-STARRS 1, Haleakala MPS 617435
